VTD723 UWSG-UWSG

Flight info

Callsign VTD723
Flight time 1h 38m
Altitude 2500
Route N1 5147N04531E/MAKEDONOVKA 5217N04514E/ABODIM UPET SOKUR
Aircraft C172/L-SDFGY/C

Departure

Time 2026-04-26 11:13
Airport Gagarin International Airport (UWSG)

Arrival

Time 2026-04-26 12:52
Airport Gagarin International Airport (UWSG)
Time Latitude Longitude Altitude Speed Heading
2026-04-26 11:13 51.64584 46.04688 1013 ft 67 kts 259°
2026-04-26 11:13 51.64511 46.03941 1281 ft 69 kts 261°
2026-04-26 11:13 51.64383 46.03181 1537 ft 69 kts 257°
2026-04-26 11:14 51.64258 46.02400 1673 ft 77 kts 264°
2026-04-26 11:14 51.64172 46.01478 1661 ft 90 kts 265°
2026-04-26 11:14 51.64118 46.00479 1677 ft 90 kts 270°
2026-04-26 11:14 51.64110 45.99846 1691 ft 82 kts 251°
2026-04-26 11:15 51.63269 45.99535 1556 ft 114 kts 184°
2026-04-26 11:15 51.62491 45.99620 1500 ft 109 kts 195°
2026-04-26 11:15 51.61826 46.00217 1445 ft 131 kts 122°
2026-04-26 11:15 51.61598 46.01621 1480 ft 124 kts 110°
2026-04-26 11:16 51.61479 46.02980 1404 ft 125 kts 87°
2026-04-26 11:16 51.61564 46.04372 1347 ft 124 kts 86°
2026-04-26 11:16 51.61632 46.05752 1325 ft 123 kts 88°
2026-04-26 11:16 51.61694 46.07139 1317 ft 124 kts 86°
2026-04-26 11:17 51.61781 46.08530 1386 ft 123 kts 83°
2026-04-26 11:17 51.61874 46.09879 1433 ft 120 kts 82°
2026-04-26 11:17 51.61981 46.11236 1415 ft 120 kts 82°
2026-04-26 11:17 51.61980 46.12529 1517 ft 113 kts 92°
2026-04-26 11:18 51.62035 46.13800 1577 ft 111 kts 85°
2026-04-26 11:18 51.62106 46.15013 1655 ft 109 kts 85°
2026-04-26 11:18 51.62178 46.16261 1674 ft 114 kts 85°
2026-04-26 11:18 51.62255 46.17557 1708 ft 118 kts 85°
2026-04-26 11:19 51.62327 46.18886 1732 ft 120 kts 84°
2026-04-26 11:19 51.62379 46.20264 1679 ft 127 kts 85°
2026-04-26 11:19 51.62427 46.21705 1594 ft 129 kts 84°
2026-04-26 11:19 51.62803 46.22860 1486 ft 107 kts 16°
2026-04-26 11:20 51.63245 46.22989 1489 ft 94 kts 350°
2026-04-26 11:20 51.63878 46.22973 1498 ft 89 kts 347°
2026-04-26 11:20 51.64557 46.22926 1237 ft 106 kts 345°
2026-04-26 11:20 51.65450 46.22474 1073 ft 96 kts 295°
2026-04-26 11:21 51.65622 46.21869 1088 ft 84 kts 274°
2026-04-26 11:21 51.65599 46.20977 1086 ft 78 kts 261°
2026-04-26 11:21 51.65548 46.20125 1087 ft 75 kts 256°
2026-04-26 11:21 51.65330 46.19368 1093 ft 77 kts 238°
2026-04-26 11:22 51.65020 46.18676 1096 ft 76 kts 238°
2026-04-26 11:22 51.64709 46.17951 1104 ft 81 kts 238°
2026-04-26 11:22 51.64385 46.17215 1089 ft 78 kts 237°
2026-04-26 11:22 51.64254 46.16460 1120 ft 72 kts 272°
2026-04-26 11:23 51.64407 46.15710 1143 ft 69 kts 284°
2026-04-26 11:23 51.64570 46.15002 1138 ft 66 kts 275°
2026-04-26 11:23 51.64645 46.14253 1108 ft 67 kts 267°
2026-04-26 11:23 51.64634 46.13497 1098 ft 67 kts 264°
2026-04-26 11:24 51.64645 46.12733 1043 ft 71 kts 265°
2026-04-26 11:24 51.64646 46.11952 941 ft 69 kts 258°
2026-04-26 11:24 51.64657 46.11209 871 ft 64 kts 259°
2026-04-26 11:24 51.64633 46.10481 845 ft 66 kts 252°
2026-04-26 11:25 51.64632 46.09681 770 ft 73 kts 256°
2026-04-26 11:25 51.64581 46.08862 662 ft 75 kts 254°
2026-04-26 11:25 51.64544 46.08053 540 ft 67 kts 253°
2026-04-26 11:25 51.64523 46.07340 470 ft 58 kts 259°
2026-04-26 11:26 51.64504 46.06737 463 ft 60 kts 267°
2026-04-26 11:26 51.64530 46.05931 564 ft 79 kts 264°
2026-04-26 11:26 51.64578 46.05072 825 ft 74 kts 263°
2026-04-26 11:26 51.64627 46.04290 1141 ft 62 kts 247°
2026-04-26 11:27 51.64497 46.03630 1333 ft 69 kts 256°
2026-04-26 11:27 51.64402 46.02821 1509 ft 75 kts 262°
2026-04-26 11:27 51.64423 46.02016 1797 ft 78 kts 297°
2026-04-26 11:27 51.64866 46.01347 1829 ft 96 kts 298°
2026-04-26 11:28 51.65273 46.00360 1718 ft 112 kts 297°
2026-04-26 11:28 51.65741 45.99451 1857 ft 96 kts 303°
2026-04-26 11:28 51.66146 45.98723 2125 ft 79 kts 301°
2026-04-26 11:28 51.66510 45.98083 2373 ft 74 kts 301°
2026-04-26 11:29 51.66845 45.97536 2612 ft 62 kts 300°
2026-04-26 11:29 51.67164 45.97056 2776 ft 64 kts 301°
2026-04-26 11:29 51.67489 45.96567 2919 ft 65 kts 301°
2026-04-26 11:29 51.67809 45.95988 3003 ft 78 kts 293°
2026-04-26 11:30 51.68110 45.95164 3014 ft 89 kts 290°
2026-04-26 11:30 51.68313 45.94554 3004 ft 95 kts 289°
2026-04-26 11:30 51.68743 45.93283 3001 ft 98 kts 290°
2026-04-26 11:30 51.69069 45.92307 2993 ft 98 kts 289°
2026-04-26 11:31 51.69412 45.91383 2991 ft 94 kts 294°
2026-04-26 11:31 51.69763 45.90496 2990 ft 92 kts 294°
2026-04-26 11:31 51.70100 45.89630 2993 ft 94 kts 294°
2026-04-26 11:31 51.70450 45.88733 2986 ft 94 kts 293°
2026-04-26 11:32 51.70801 45.87858 2989 ft 93 kts 293°
2026-04-26 11:32 51.71160 45.86974 2984 ft 93 kts 293°
2026-04-26 11:32 51.71398 45.86047 2977 ft 86 kts 268°
2026-04-26 11:32 51.71396 45.85116 2975 ft 83 kts 263°
2026-04-26 11:33 51.71320 45.84203 2971 ft 82 kts 257°
2026-04-26 11:33 51.71230 45.83287 2975 ft 84 kts 258°
2026-04-26 11:33 51.71132 45.82355 2983 ft 86 kts 258°
2026-04-26 11:33 51.71032 45.81386 2986 ft 89 kts 258°
2026-04-26 11:34 51.70929 45.80389 2989 ft 90 kts 258°
2026-04-26 11:34 51.70823 45.79389 2983 ft 91 kts 262°
2026-04-26 11:34 51.71065 45.78441 2991 ft 96 kts 297°
2026-04-26 11:34 51.71341 45.77511 2974 ft 91 kts 282°
2026-04-26 11:35 51.71555 45.76552 2978 ft 92 kts 280°
2026-04-26 11:35 51.71778 45.75579 2975 ft 93 kts 284°
2026-04-26 11:35 51.72063 45.74651 2981 ft 93 kts 289°
2026-04-26 11:35 51.72373 45.73734 2978 ft 95 kts 288°
2026-04-26 11:36 51.72685 45.72788 2973 ft 96 kts 288°
2026-04-26 11:36 51.72996 45.71826 2983 ft 96 kts 287°
2026-04-26 11:36 51.73307 45.70874 2982 ft 97 kts 288°
2026-04-26 11:36 51.73621 45.69914 2978 ft 97 kts 288°
2026-04-26 11:37 51.73939 45.68938 2971 ft 99 kts 288°
2026-04-26 11:37 51.74256 45.67948 2972 ft 99 kts 289°
2026-04-26 11:37 51.74569 45.66964 2970 ft 98 kts 288°
2026-04-26 11:37 51.74880 45.65982 2964 ft 99 kts 289°
2026-04-26 11:38 51.75200 45.64986 2965 ft 101 kts 289°
2026-04-26 11:38 51.75529 45.63964 2972 ft 105 kts 287°
2026-04-26 11:38 51.75872 45.62910 2964 ft 105 kts 289°
2026-04-26 11:38 51.76208 45.61889 2958 ft 102 kts 288°
2026-04-26 11:39 51.76543 45.60907 2954 ft 99 kts 289°
2026-04-26 11:39 51.76875 45.59936 2946 ft 99 kts 290°
2026-04-26 11:39 51.77204 45.58964 2946 ft 98 kts 289°
2026-04-26 11:39 51.77525 45.57995 2946 ft 98 kts 288°
2026-04-26 11:40 51.77846 45.57034 2950 ft 96 kts 289°
2026-04-26 11:40 51.78163 45.56103 2947 ft 93 kts 289°
2026-04-26 11:40 51.78468 45.55211 2947 ft 91 kts 288°
2026-04-26 11:40 51.78784 45.54287 2951 ft 95 kts 288°
2026-04-26 11:41 51.79108 45.53319 2942 ft 101 kts 287°
2026-04-26 11:42 51.83056 45.48219 2973 ft 122 kts 331°
2026-04-26 11:43 51.83902 45.47798 2951 ft 127 kts 332°
2026-04-26 11:43 51.84732 45.47393 2940 ft 122 kts 332°
2026-04-26 11:43 51.85570 45.46980 2960 ft 131 kts 332°
2026-04-26 11:43 51.86418 45.46560 2941 ft 123 kts 333°
2026-04-26 11:44 51.87231 45.46173 2931 ft 119 kts 331°
2026-04-26 11:44 51.88006 45.45814 2947 ft 115 kts 332°
2026-04-26 11:44 51.88778 45.45457 2949 ft 115 kts 331°
2026-04-26 11:44 51.89529 45.44959 2937 ft 117 kts 324°
2026-04-26 11:45 51.90272 45.44420 2953 ft 117 kts 324°
2026-04-26 11:45 51.90997 45.43906 2937 ft 112 kts 324°
2026-04-26 11:45 51.91706 45.43416 2933 ft 110 kts 324°
2026-04-26 11:45 51.92407 45.42939 2933 ft 107 kts 324°
2026-04-26 11:46 51.93088 45.42484 2937 ft 105 kts 324°
2026-04-26 11:46 51.93736 45.41985 2931 ft 99 kts 314°
2026-04-26 11:46 51.94317 45.41392 2932 ft 99 kts 315°
2026-04-26 11:46 51.94899 45.40798 2930 ft 102 kts 315°
2026-04-26 11:47 51.95515 45.40199 2933 ft 104 kts 316°
2026-04-26 11:47 51.96152 45.39579 2948 ft 109 kts 316°
2026-04-26 11:47 51.96804 45.38922 2945 ft 113 kts 316°
2026-04-26 11:47 51.97480 45.38230 2946 ft 116 kts 315°
2026-04-26 11:48 51.98186 45.37565 2936 ft 119 kts 321°
2026-04-26 11:48 51.98917 45.36924 2937 ft 120 kts 321°
2026-04-26 11:48 51.99659 45.36277 2927 ft 123 kts 320°
2026-04-26 11:48 52.00402 45.35626 2930 ft 120 kts 320°
2026-04-26 11:49 52.01142 45.34981 2937 ft 121 kts 320°
2026-04-26 11:49 52.01891 45.34323 2939 ft 122 kts 319°
2026-04-26 11:49 52.02634 45.33668 2939 ft 125 kts 321°
2026-04-26 11:49 52.03402 45.32990 2930 ft 124 kts 321°
2026-04-26 11:50 52.04163 45.32318 2935 ft 124 kts 320°
2026-04-26 11:50 52.04924 45.31645 2927 ft 123 kts 321°
2026-04-26 11:50 52.05684 45.30977 2931 ft 124 kts 320°
2026-04-26 11:50 52.06427 45.30326 2930 ft 122 kts 320°
2026-04-26 11:51 52.07191 45.29695 2916 ft 126 kts 332°
2026-04-26 11:51 52.08087 45.29547 2922 ft 130 kts 349°
2026-04-26 11:51 52.08991 45.29482 2917 ft 130 kts 350°
2026-04-26 11:51 52.09911 45.29492 2930 ft 134 kts 352°
2026-04-26 11:52 52.10858 45.29474 2934 ft 136 kts 348°
2026-04-26 11:52 52.11484 45.29379 2926 ft 136 kts 346°
2026-04-26 11:52 52.12735 45.29129 2934 ft 137 kts 344°
2026-04-26 11:52 52.13659 45.28875 2930 ft 134 kts 340°
2026-04-26 11:53 52.14586 45.28595 2932 ft 136 kts 341°
2026-04-26 11:53 52.15513 45.28307 2932 ft 134 kts 339°
2026-04-26 11:53 52.16439 45.27991 2914 ft 137 kts 338°
2026-04-26 11:54 52.18259 45.27290 2923 ft 135 kts 338°
2026-04-26 11:54 52.19181 45.26928 2924 ft 136 kts 338°
2026-04-26 11:54 52.20094 45.26568 2923 ft 133 kts 338°
2026-04-26 11:54 52.21010 45.26205 2922 ft 137 kts 338°
2026-04-26 11:55 52.21933 45.25833 2912 ft 135 kts 338°
2026-04-26 11:55 52.22821 45.25481 2914 ft 130 kts 337°
2026-04-26 11:55 52.23711 45.25132 2910 ft 132 kts 338°
2026-04-26 11:55 52.24587 45.24791 2903 ft 126 kts 337°
2026-04-26 11:56 52.25424 45.24474 2902 ft 121 kts 337°
2026-04-26 11:56 52.26240 45.24171 2897 ft 120 kts 338°
2026-04-26 11:56 52.27048 45.23872 2933 ft 118 kts 337°
2026-04-26 11:56 52.27842 45.23593 3014 ft 119 kts 337°
2026-04-26 11:57 52.28698 45.23406 2967 ft 130 kts 346°
2026-04-26 11:57 52.29527 45.23807 2956 ft 133 kts 76°
2026-04-26 11:57 52.29255 45.24438 3182 ft 65 kts 227°
2026-04-26 11:57 52.29642 45.23881 3243 ft 109 kts 334°
2026-04-26 11:58 52.30395 45.23919 3195 ft 124 kts 59°
2026-04-26 11:58 52.30210 45.24714 3199 ft 72 kts 214°
2026-04-26 11:58 52.30542 45.24106 3164 ft 116 kts 332°
2026-04-26 11:58 52.30552 45.23540 3153 ft 86 kts 168°
2026-04-26 11:59 52.30673 45.24584 3120 ft 138 kts 15°
2026-04-26 11:59 52.31462 45.24951 3003 ft 134 kts 91°
2026-04-26 11:59 52.31165 45.25253 2892 ft 106 kts 284°
2026-04-26 11:59 52.31408 45.24607 2850 ft 87 kts 170°
2026-04-26 12:00 52.31791 45.25321 2765 ft 123 kts 348°
2026-04-26 12:00 52.32579 45.25150 2705 ft 119 kts 340°
2026-04-26 12:00 52.33361 45.24914 2576 ft 99 kts 303°
2026-04-26 12:00 52.33390 45.24178 2543 ft 63 kts 213°
2026-04-26 12:01 52.32937 45.24471 2430 ft 83 kts 159°
2026-04-26 12:01 52.32531 45.24999 2432 ft 67 kts 167°
2026-04-26 12:01 52.32148 45.25271 2323 ft 58 kts 181°
2026-04-26 12:01 52.31763 45.25393 2211 ft 56 kts 190°
2026-04-26 12:02 52.31401 45.25420 2234 ft 50 kts 197°
2026-04-26 12:02 52.31176 45.25362 2307 ft 49 kts 202°
2026-04-26 12:02 52.30717 45.25257 2525 ft 49 kts 202°
2026-04-26 12:02 52.30409 45.25051 2675 ft 47 kts 211°
2026-04-26 12:03 52.30157 45.24715 2894 ft 43 kts 223°
2026-04-26 12:03 52.29936 45.24399 2972 ft 40 kts 219°
2026-04-26 12:03 52.29711 45.24113 3035 ft 42 kts 217°
2026-04-26 12:03 52.29459 45.23773 3046 ft 48 kts 220°
2026-04-26 12:04 52.29230 45.23391 3040 ft 45 kts 225°
2026-04-26 12:04 52.29037 45.22982 3006 ft 45 kts 228°
2026-04-26 12:04 52.28882 45.22520 3026 ft 47 kts 234°
2026-04-26 12:04 52.28778 45.21992 2985 ft 50 kts 240°
2026-04-26 12:05 52.28717 45.21357 2892 ft 75 kts 263°
2026-04-26 12:05 52.28969 45.20467 2904 ft 91 kts 280°
2026-04-26 12:05 52.29567 45.19772 2924 ft 117 kts 323°
2026-04-26 12:05 52.30445 45.19682 2920 ft 139 kts 14°
2026-04-26 12:06 52.31135 45.20699 2916 ft 134 kts 79°
2026-04-26 12:06 52.31170 45.22117 2916 ft 124 kts 107°
2026-04-26 12:06 52.31100 45.23536 2912 ft 123 kts 115°
2026-04-26 12:06 52.30963 45.24942 2911 ft 125 kts 111°
2026-04-26 12:07 52.30831 45.26317 2904 ft 117 kts 120°
2026-04-26 12:07 52.30620 45.27583 2914 ft 117 kts 121°
2026-04-26 12:07 52.30480 45.28433 2896 ft 115 kts 120°
2026-04-26 12:07 52.30282 45.29682 2909 ft 113 kts 119°
2026-04-26 12:08 52.29999 45.31371 2909 ft 115 kts 122°
2026-04-26 12:08 52.29704 45.32535 2911 ft 109 kts 128°
2026-04-26 12:08 52.29512 45.33291 2912 ft 109 kts 127°
2026-04-26 12:08 52.29219 45.34437 2913 ft 110 kts 127°
2026-04-26 12:09 52.28919 45.35586 2913 ft 110 kts 128°
2026-04-26 12:09 52.28619 45.36737 2910 ft 111 kts 128°
2026-04-26 12:09 52.28333 45.37883 2905 ft 107 kts 127°
2026-04-26 12:09 52.28065 45.39006 2907 ft 105 kts 127°
2026-04-26 12:10 52.27806 45.40125 2912 ft 105 kts 127°
2026-04-26 12:10 52.27465 45.41127 2915 ft 99 kts 143°
2026-04-26 12:10 52.27030 45.41998 2912 ft 97 kts 152°
2026-04-26 12:10 52.26540 45.42743 2920 ft 97 kts 155°
2026-04-26 12:11 52.26021 45.43432 2930 ft 98 kts 156°
2026-04-26 12:11 52.25482 45.44143 2922 ft 99 kts 156°
2026-04-26 12:11 52.24933 45.44854 2923 ft 104 kts 156°
2026-04-26 12:11 52.24361 45.45570 2927 ft 105 kts 156°
2026-04-26 12:12 52.23766 45.46298 2929 ft 108 kts 156°
2026-04-26 12:12 52.23183 45.47028 2915 ft 102 kts 155°
2026-04-26 12:12 52.22638 45.47747 2911 ft 99 kts 155°
2026-04-26 12:12 52.22291 45.48214 2918 ft 97 kts 155°
2026-04-26 12:13 52.21618 45.49133 2910 ft 94 kts 155°
2026-04-26 12:13 52.21115 45.49821 2911 ft 94 kts 155°
2026-04-26 12:13 52.20613 45.50505 2915 ft 94 kts 155°
2026-04-26 12:13 52.20108 45.51183 2917 ft 94 kts 155°
2026-04-26 12:14 52.19613 45.51904 2915 ft 96 kts 152°
2026-04-26 12:14 52.19114 45.52637 2917 ft 97 kts 152°
2026-04-26 12:14 52.18608 45.53373 2924 ft 98 kts 152°
2026-04-26 12:14 52.18097 45.54114 2926 ft 98 kts 152°
2026-04-26 12:15 52.17575 45.54865 2930 ft 104 kts 152°
2026-04-26 12:15 52.17013 45.55651 2933 ft 109 kts 151°
2026-04-26 12:15 52.16455 45.56462 2928 ft 107 kts 152°
2026-04-26 12:15 52.15907 45.57275 2928 ft 106 kts 152°
2026-04-26 12:16 52.15361 45.58092 2931 ft 109 kts 151°
2026-04-26 12:16 52.14791 45.58930 2925 ft 111 kts 152°
2026-04-26 12:16 52.14231 45.59757 2922 ft 107 kts 152°
2026-04-26 12:16 52.13687 45.60572 2925 ft 105 kts 151°
2026-04-26 12:17 52.13157 45.61378 2925 ft 103 kts 151°
2026-04-26 12:17 52.12638 45.62157 2920 ft 101 kts 151°
2026-04-26 12:17 52.12132 45.62928 2924 ft 98 kts 151°
2026-04-26 12:17 52.11634 45.63689 2925 ft 97 kts 151°
2026-04-26 12:18 52.11136 45.64448 2925 ft 99 kts 152°
2026-04-26 12:18 52.10617 45.65227 2929 ft 103 kts 152°
2026-04-26 12:18 52.10090 45.66009 2930 ft 103 kts 152°
2026-04-26 12:18 52.09566 45.66793 2931 ft 101 kts 151°
2026-04-26 12:19 52.09049 45.67561 2928 ft 100 kts 151°
2026-04-26 12:19 52.08535 45.68322 2924 ft 100 kts 151°
2026-04-26 12:19 52.08029 45.69065 2925 ft 96 kts 149°
2026-04-26 12:19 52.07551 45.69789 2929 ft 94 kts 151°
2026-04-26 12:20 52.07055 45.70520 2930 ft 100 kts 152°
2026-04-26 12:20 52.06539 45.71262 2932 ft 97 kts 151°
2026-04-26 12:20 52.06047 45.71987 2934 ft 97 kts 151°
2026-04-26 12:20 52.05543 45.72738 2947 ft 100 kts 152°
2026-04-26 12:21 52.05020 45.73493 2942 ft 100 kts 151°
2026-04-26 12:21 52.04506 45.74262 2945 ft 100 kts 151°
2026-04-26 12:21 52.03995 45.75030 2945 ft 100 kts 151°
2026-04-26 12:21 52.03466 45.75813 2952 ft 106 kts 151°
2026-04-26 12:22 52.02906 45.76619 2943 ft 106 kts 151°
2026-04-26 12:22 52.02358 45.77412 2942 ft 105 kts 151°
2026-04-26 12:22 52.01813 45.78197 2946 ft 105 kts 152°
2026-04-26 12:22 52.01279 45.78963 2945 ft 103 kts 152°
2026-04-26 12:23 52.00745 45.79736 2935 ft 102 kts 151°
2026-04-26 12:23 52.00223 45.80503 2935 ft 100 kts 151°
2026-04-26 12:23 51.99705 45.81270 2958 ft 103 kts 152°
2026-04-26 12:23 51.99167 45.82054 2948 ft 103 kts 151°
2026-04-26 12:24 51.98626 45.82787 2944 ft 104 kts 156°
2026-04-26 12:24 51.98039 45.83449 2967 ft 103 kts 159°
2026-04-26 12:24 51.97414 45.84053 2944 ft 103 kts 161°
2026-04-26 12:25 51.96239 45.85137 2940 ft 92 kts 161°
2026-04-26 12:25 51.95685 45.85652 2940 ft 92 kts 160°
2026-04-26 12:25 51.95134 45.86160 2947 ft 92 kts 161°
2026-04-26 12:25 51.94578 45.86689 2956 ft 95 kts 161°
2026-04-26 12:26 51.93976 45.87247 2965 ft 105 kts 161°
2026-04-26 12:26 51.93321 45.87864 2973 ft 113 kts 158°
2026-04-26 12:26 51.92678 45.88563 2965 ft 111 kts 156°
2026-04-26 12:26 51.92044 45.89267 2963 ft 109 kts 156°
2026-04-26 12:27 51.91450 45.89944 2978 ft 99 kts 156°
2026-04-26 12:27 51.90903 45.90590 2975 ft 96 kts 156°
2026-04-26 12:27 51.90355 45.91243 2985 ft 100 kts 156°
2026-04-26 12:27 51.89791 45.91903 2985 ft 99 kts 158°
2026-04-26 12:28 51.89234 45.92559 2981 ft 97 kts 156°
2026-04-26 12:28 51.88689 45.93209 2977 ft 96 kts 156°
2026-04-26 12:28 51.88142 45.93794 2998 ft 95 kts 158°
2026-04-26 12:28 51.87597 45.94394 3032 ft 96 kts 157°
2026-04-26 12:29 51.87036 45.95005 3051 ft 97 kts 158°
2026-04-26 12:29 51.86467 45.95591 3088 ft 97 kts 160°
2026-04-26 12:29 51.85261 45.96545 3180 ft 98 kts 168°
2026-04-26 12:30 51.84643 45.96970 3244 ft 102 kts 150°
2026-04-26 12:30 51.84425 45.98183 3131 ft 134 kts 85°
2026-04-26 12:30 51.85024 45.99348 3112 ft 142 kts 22°
2026-04-26 12:31 51.86244 45.98208 2931 ft 98 kts 251°
2026-04-26 12:31 51.85815 45.97590 2884 ft 87 kts 192°
2026-04-26 12:31 51.85272 45.98042 2891 ft 95 kts 135°
2026-04-26 12:31 51.85275 45.99182 2911 ft 119 kts 66°
2026-04-26 12:32 51.85978 45.99847 2843 ft 122 kts 352°
2026-04-26 12:32 51.86621 45.99218 2931 ft 100 kts 285°
2026-04-26 12:32 51.86033 45.98172 2896 ft 88 kts 162°
2026-04-26 12:33 51.85737 45.99187 2723 ft 124 kts 94°
2026-04-26 12:33 51.86258 46.00202 2797 ft 122 kts 15°
2026-04-26 12:33 51.86963 45.99888 2812 ft 98 kts 293°
2026-04-26 12:33 51.86992 45.99029 2911 ft 72 kts 231°
2026-04-26 12:34 51.86660 45.98402 2986 ft 75 kts 223°
2026-04-26 12:34 51.86268 45.97850 3062 ft 74 kts 214°
2026-04-26 12:34 51.85807 45.97473 3067 ft 77 kts 204°
2026-04-26 12:34 51.85292 45.97257 3091 ft 78 kts 195°
2026-04-26 12:35 51.84721 45.97334 3154 ft 92 kts 165°
2026-04-26 12:35 51.84341 45.98301 3134 ft 124 kts 106°
2026-04-26 12:35 51.84742 45.99575 3189 ft 139 kts 29°
2026-04-26 12:35 51.85648 45.99529 3035 ft 131 kts 321°
2026-04-26 12:36 51.86155 45.98532 2996 ft 102 kts 273°
2026-04-26 12:36 51.86032 45.97554 2907 ft 85 kts 225°
2026-04-26 12:36 51.85522 45.97297 2888 ft 83 kts 177°
2026-04-26 12:36 51.85118 45.98062 2901 ft 106 kts 116°
2026-04-26 12:37 51.85094 45.99302 2948 ft 116 kts 86°
2026-04-26 12:37 51.85585 46.00390 2903 ft 128 kts 32°
2026-04-26 12:37 51.86420 46.00506 2908 ft 115 kts 326°
2026-04-26 12:37 51.86842 45.99677 2913 ft 88 kts 262°
2026-04-26 12:38 51.86626 45.98882 2905 ft 78 kts 213°
2026-04-26 12:38 51.86094 45.98802 2918 ft 82 kts 169°
2026-04-26 12:38 51.85656 45.99449 2919 ft 94 kts 136°
2026-04-26 12:38 51.85475 46.00538 2947 ft 107 kts 98°
2026-04-26 12:39 51.85865 46.01652 3003 ft 123 kts 36°
2026-04-26 12:39 51.86670 46.01705 2979 ft 113 kts 315°
2026-04-26 12:39 51.86890 46.00751 2923 ft 87 kts 243°
2026-04-26 12:39 51.86586 45.99925 2837 ft 87 kts 229°
2026-04-26 12:40 51.86240 45.99114 2800 ft 90 kts 232°
2026-04-26 12:40 51.85956 45.98229 2758 ft 88 kts 240°
2026-04-26 12:40 51.85713 45.97392 2837 ft 80 kts 238°
2026-04-26 12:40 51.85397 45.96662 2920 ft 78 kts 219°
2026-04-26 12:41 51.84875 45.96386 3053 ft 84 kts 184°
2026-04-26 12:41 51.84328 45.96869 3073 ft 105 kts 142°
2026-04-26 12:41 51.83875 45.97827 2989 ft 104 kts 143°
2026-04-26 12:41 51.83467 45.98826 2873 ft 117 kts 114°
2026-04-26 12:42 51.83350 46.00160 2779 ft 120 kts 109°
2026-04-26 12:42 51.83236 46.01488 2675 ft 119 kts 109°
2026-04-26 12:42 51.83144 46.02838 2585 ft 124 kts 108°
2026-04-26 12:42 51.82974 46.04185 2483 ft 118 kts 121°
2026-04-26 12:43 51.82675 46.05393 2385 ft 117 kts 123°
2026-04-26 12:43 51.82406 46.06664 2288 ft 121 kts 119°
2026-04-26 12:43 51.82162 46.07985 2188 ft 125 kts 118°
2026-04-26 12:43 51.81900 46.09354 2085 ft 128 kts 118°
2026-04-26 12:44 51.81631 46.10734 2006 ft 129 kts 118°
2026-04-26 12:44 51.81362 46.12114 2004 ft 126 kts 119°
2026-04-26 12:44 51.81070 46.13408 2001 ft 121 kts 123°
2026-04-26 12:44 51.80758 46.14685 1995 ft 122 kts 123°
2026-04-26 12:45 51.80434 46.15942 1997 ft 121 kts 123°
2026-04-26 12:45 51.80115 46.17195 1992 ft 118 kts 123°
2026-04-26 12:45 51.79809 46.18413 1990 ft 115 kts 123°
2026-04-26 12:45 51.79536 46.19613 1993 ft 117 kts 122°
2026-04-26 12:46 51.79238 46.20891 1997 ft 125 kts 122°
2026-04-26 12:46 51.78916 46.22234 1999 ft 127 kts 121°
2026-04-26 12:46 51.78608 46.23561 2000 ft 128 kts 121°
2026-04-26 12:46 51.78300 46.24906 1998 ft 127 kts 121°
2026-04-26 12:47 51.77811 46.25936 2000 ft 110 kts 157°
2026-04-26 12:47 51.77168 46.26581 2000 ft 107 kts 156°
2026-04-26 12:47 51.76598 46.27432 1913 ft 115 kts 142°
2026-04-26 12:47 51.76041 46.28314 1782 ft 106 kts 160°
2026-04-26 12:48 51.75383 46.28476 1728 ft 91 kts 186°
2026-04-26 12:48 51.74764 46.28403 1612 ft 91 kts 187°
2026-04-26 12:48 51.74090 46.28340 1386 ft 103 kts 186°
2026-04-26 12:48 51.73364 46.28337 1184 ft 100 kts 183°
2026-04-26 12:49 51.72666 46.28271 956 ft 104 kts 192°
2026-04-26 12:49 51.72004 46.28027 888 ft 97 kts 198°
2026-04-26 12:49 51.71397 46.27521 779 ft 98 kts 216°
2026-04-26 12:49 51.71097 46.26629 780 ft 93 kts 261°
2026-04-26 12:50 51.71173 46.25563 668 ft 94 kts 266°
2026-04-26 12:50 51.71201 46.24537 625 ft 90 kts 260°
2026-04-26 12:50 51.71168 46.23575 583 ft 80 kts 259°
2026-04-26 12:50 51.71175 46.22687 491 ft 78 kts 261°
2026-04-26 12:51 51.71192 46.21836 385 ft 75 kts 258°
2026-04-26 12:51 51.71184 46.20985 273 ft 79 kts 264°
2026-04-26 12:51 51.71197 46.20108 174 ft 74 kts 259°
2026-04-26 12:51 51.71211 46.19349 123 ft 60 kts 268°
2026-04-26 12:52 51.71224 46.18769 105 ft 45 kts 271°
2026-04-26 12:52 51.71231 46.18277 104 ft 45 kts 275°
2026-04-26 12:52 51.71240 46.17780 105 ft 41 kts 270°
2026-04-26 12:52 51.71280 46.17425 105 ft 23 kts 330°
2026-04-26 12:53 51.71394 46.17414 106 ft 0 kts
2026-04-26 12:53 51.71403 46.17414 106 ft 8 kts 360°
2026-04-26 12:53 51.71504 46.17331 106 ft 25 kts 263°
2026-04-26 12:54 51.71522 46.17107 106 ft 19 kts 266°
2026-04-26 12:54 51.71533 46.16969 106 ft 5 kts 311°
2026-04-26 12:54 51.71565 46.16960 106 ft 3 kts
2026-04-26 12:54 51.71576 46.16964 106 ft 0 kts